Time,TemperatureF,DewpointF,PressureIn,WindDirection,WindDirectionDegrees,WindSpeedMPH,WindSpeedGustMPH,Humidity,HourlyPrecipIn,Conditions,Clouds,dailyrainin,SoftwareType,DateUTC
2013-06-04 00:01:00,63.1,53.2,29.85,WNW,291,1.0,15.0,70,0.00,,,0.00,Wunderground v.1.15,2013-06-04 04:01:00,
2013-06-04 00:11:00,62.6,52.7,29.85,NW,306,1.0,15.0,70,0.00,,,0.00,Wunderground v.1.15,2013-06-04 04:11:00,
2013-06-04 00:16:00,62.4,51.7,29.85,WNW,294,2.0,15.0,68,0.00,,,0.00,Wunderground v.1.15,2013-06-04 04:16:00,
2013-06-04 00:21:00,62.1,50.6,29.84,West,270,2.0,2.0,66,0.00,,,0.00,Wunderground v.1.15,2013-06-04 04:21:00,
2013-06-04 00:36:00,61.2,48.5,29.85,WSW,255,2.0,15.0,63,0.00,,,0.00,Wunderground v.1.15,2013-06-04 04:36:00,
2013-06-04 00:41:00,61.0,48.7,29.85,WNW,294,2.0,15.0,64,0.00,,,0.00,Wunderground v.1.15,2013-06-04 04:41:00,
2013-06-04 00:51:00,60.3,46.4,29.86,West,269,2.0,15.0,60,0.00,,,0.00,Wunderground v.1.15,2013-06-04 04:51:00,
2013-06-04 00:56:00,60.1,46.6,29.86,NW,309,2.0,15.0,61,0.00,,,0.00,Wunderground v.1.15,2013-06-04 04:56:00,
2013-06-04 01:06:00,59.8,45.4,29.86,WSW,250,2.0,15.0,59,0.00,,,0.00,Wunderground v.1.15,2013-06-04 05:06:00,
2013-06-04 01:16:00,59.5,44.2,29.87,NW,316,2.0,15.0,57,0.00,,,0.00,Wunderground v.1.15,2013-06-04 05:16:00,
2013-06-04 01:26:00,59.2,44.0,29.87,NW,311,2.0,15.0,57,0.00,,,0.00,Wunderground v.1.15,2013-06-04 05:26:00,
2013-06-04 01:31:00,59.0,44.2,29.87,WSW,253,1.0,15.0,58,0.00,,,0.00,Wunderground v.1.15,2013-06-04 05:31:00,
2013-06-04 01:41:00,58.6,43.9,29.87,WSW,250,2.0,15.0,58,0.00,,,0.00,Wunderground v.1.15,2013-06-04 05:41:00,
2013-06-04 01:56:00,58.0,43.7,29.87,WNW,290,2.0,15.0,59,0.00,,,0.00,Wunderground v.1.15,2013-06-04 05:56:00,
2013-06-04 02:06:00,57.8,42.7,29.87,WNW,297,2.0,15.0,57,0.00,,,0.00,Wunderground v.1.15,2013-06-04 06:06:00,
2013-06-04 02:16:00,57.8,42.2,29.87,WNW,292,2.0,15.0,56,0.00,,,0.00,Wunderground v.1.15,2013-06-04 06:16:00,
2013-06-04 02:26:00,57.4,42.3,29.88,WNW,299,2.0,15.0,57,0.00,,,0.00,Wunderground v.1.15,2013-06-04 06:26:00,
2013-06-04 02:36:00,56.9,42.7,29.88,WNW,294,2.0,15.0,59,0.00,,,0.00,Wunderground v.1.15,2013-06-04 06:36:00,
2013-06-04 02:51:00,56.6,42.0,29.88,WNW,291,2.0,15.0,58,0.00,,,0.00,Wunderground v.1.15,2013-06-04 06:51:00,
2013-06-04 02:56:00,56.5,41.0,29.88,WNW,296,3.0,15.0,56,0.00,,,0.00,Wunderground v.1.15,2013-06-04 06:56:00,
2013-06-04 03:01:00,56.4,41.3,29.89,WNW,297,3.0,3.0,57,0.00,,,0.00,Wunderground v.1.15,2013-06-04 07:01:00,
2013-06-04 03:11:00,55.9,41.3,29.88,WNW,294,2.0,15.0,58,0.00,,,0.00,Wunderground v.1.15,2013-06-04 07:11:00,
2013-06-04 03:21:00,55.3,40.8,29.89,WNW,303,2.0,15.0,58,0.00,,,0.00,Wunderground v.1.15,2013-06-04 07:21:00,
2013-06-04 03:26:00,55.0,41.8,29.89,West,266,2.0,15.0,61,0.00,,,0.00,Wunderground v.1.15,2013-06-04 07:26:00,
2013-06-04 03:36:00,54.5,41.7,29.89,NNW,329,2.0,3.0,62,0.00,,,0.00,Wunderground v.1.15,2013-06-04 07:36:00,
2013-06-04 03:46:00,54.1,41.4,29.89,NW,318,2.0,15.0,62,0.00,,,0.00,Wunderground v.1.15,2013-06-04 07:46:00,
2013-06-04 03:51:00,53.9,41.2,29.89,NW,315,1.0,15.0,62,0.00,,,0.00,Wunderground v.1.15,2013-06-04 07:51:00,
2013-06-04 04:01:00,53.5,42.0,29.89,WNW,296,1.0,15.0,65,0.00,,,0.00,Wunderground v.1.15,2013-06-04 08:01:00,
2013-06-04 04:11:00,53.1,42.0,29.89,NW,311,1.0,15.0,66,0.00,,,0.00,Wunderground v.1.15,2013-06-04 08:11:00,
2013-06-04 04:16:00,52.9,41.8,29.90,WNW,297,1.0,15.0,66,0.00,,,0.00,Wunderground v.1.15,2013-06-04 08:16:00,
2013-06-04 04:31:00,52.2,42.3,29.90,NW,308,1.0,15.0,69,0.00,,,0.00,Wunderground v.1.15,2013-06-04 08:31:00,
2013-06-04 04:36:00,52.0,42.1,29.90,North,349,1.0,15.0,69,0.00,,,0.00,Wunderground v.1.15,2013-06-04 08:36:00,
2013-06-04 04:41:00,51.8,42.3,29.90,West,278,0.0,15.0,70,0.00,,,0.00,Wunderground v.1.15,2013-06-04 08:41:00,
2013-06-04 04:51:00,51.5,42.4,29.90,WNW,301,1.0,15.0,71,0.00,,,0.00,Wunderground v.1.15,2013-06-04 08:51:00,
2013-06-04 05:01:00,51.6,42.5,29.90,NW,316,1.0,15.0,71,0.00,,,0.00,Wunderground v.1.15,2013-06-04 09:01:00,
2013-06-04 05:06:00,51.7,42.2,29.90,WNW,303,2.0,15.0,70,0.00,,,0.00,Wunderground v.1.15,2013-06-04 09:06:00,
2013-06-04 05:21:00,52.2,42.0,29.91,WNW,287,2.0,15.0,68,0.00,,,0.00,Wunderground v.1.15,2013-06-04 09:21:00,
2013-06-04 05:26:00,52.6,42.3,29.91,NW,312,2.0,15.0,68,0.00,,,0.00,Wunderground v.1.15,2013-06-04 09:26:00,
2013-06-04 05:36:00,53.1,41.6,29.91,WNW,293,3.0,15.0,65,0.00,,,0.00,Wunderground v.1.15,2013-06-04 09:36:00,
2013-06-04 05:41:00,53.2,42.1,29.92,North,5,2.0,15.0,66,0.00,,,0.00,Wunderground v.1.15,2013-06-04 09:41:00,
2013-06-04 05:51:00,53.4,42.3,29.92,West,273,2.0,15.0,66,0.00,,,0.00,Wunderground v.1.15,2013-06-04 09:51:00,
2013-06-04 05:56:00,53.4,42.3,29.92,WNW,284,3.0,15.0,66,0.00,,,0.00,Wunderground v.1.15,2013-06-04 09:56:00,
2013-06-04 06:06:00,53.7,42.6,29.92,NW,304,2.0,15.0,66,0.00,,,0.00,Wunderground v.1.15,2013-06-04 10:06:00,
2013-06-04 06:16:00,53.9,43.2,29.93,West,278,2.0,15.0,67,0.00,,,0.00,Wunderground v.1.15,2013-06-04 10:16:00,
2013-06-04 06:21:00,53.9,42.8,29.93,WNW,300,3.0,15.0,66,0.00,,,0.00,Wunderground v.1.15,2013-06-04 10:21:00,
2013-06-04 06:26:00,54.0,43.3,29.93,NW,310,2.0,15.0,67,0.00,,,0.00,Wunderground v.1.15,2013-06-04 10:26:00,
2013-06-04 06:31:00,54.2,43.1,29.93,NW,315,2.0,2.0,66,0.00,,,0.00,Wunderground v.1.15,2013-06-04 10:31:00,
2013-06-04 06:36:00,54.3,44.0,29.93,WNW,290,2.0,3.0,68,0.00,,,0.00,Wunderground v.1.15,2013-06-04 10:36:00,
2013-06-04 06:46:00,54.5,44.2,29.93,WNW,291,2.0,15.0,68,0.00,,,0.00,Wunderground v.1.15,2013-06-04 10:46:00,
2013-06-04 06:51:00,54.5,43.4,29.93,NW,321,2.0,15.0,66,0.00,,,0.00,Wunderground v.1.15,2013-06-04 10:51:00,
2013-06-04 07:01:00,54.8,43.7,29.93,WNW,283,2.0,2.0,66,0.00,,,0.00,Wunderground v.1.15,2013-06-04 11:01:00,
2013-06-04 07:06:00,55.0,44.6,29.93,NW,309,2.0,15.0,68,0.00,,,0.00,Wunderground v.1.15,2013-06-04 11:06:00,
2013-06-04 07:16:00,55.3,44.1,29.93,WNW,293,3.0,15.0,66,0.00,,,0.00,Wunderground v.1.15,2013-06-04 11:16:00,
2013-06-04 07:26:00,55.5,44.3,29.94,WNW,290,2.0,15.0,66,0.00,,,0.00,Wunderground v.1.15,2013-06-04 11:26:00,
2013-06-04 07:31:00,55.6,43.6,29.94,NW,318,2.0,15.0,64,0.00,,,0.00,Wunderground v.1.15,2013-06-04 11:31:00,
2013-06-04 07:36:00,55.7,44.1,29.94,NW,320,3.0,15.0,65,0.00,,,0.00,Wunderground v.1.15,2013-06-04 11:36:00,
2013-06-04 07:46:00,56.5,44.0,29.95,WNW,297,2.0,15.0,63,0.00,,,0.00,Wunderground v.1.15,2013-06-04 11:46:00,
2013-06-04 07:51:00,57.0,45.3,29.95,NW,320,3.0,3.0,65,0.00,,,0.00,Wunderground v.1.15,2013-06-04 11:51:00,
2013-06-04 07:56:00,57.5,45.0,29.95,NNW,345,2.0,15.0,63,0.00,,,0.00,Wunderground v.1.15,2013-06-04 11:56:00,
2013-06-04 08:06:00,57.7,44.3,29.95,West,281,3.0,15.0,61,0.00,,,0.00,Wunderground v.1.15,2013-06-04 12:06:00,
2013-06-04 08:11:00,57.7,44.3,29.95,NNW,338,3.0,15.0,61,0.00,,,0.00,Wunderground v.1.15,2013-06-04 12:11:00,
2013-06-04 08:21:00,57.8,45.3,29.96,NW,309,3.0,3.0,63,0.00,,,0.00,Wunderground v.1.15,2013-06-04 12:21:00,
2013-06-04 08:36:00,58.6,45.6,29.95,WNW,301,2.0,15.0,62,0.00,,,0.00,Wunderground v.1.15,2013-06-04 12:36:00,
2013-06-04 08:46:00,58.9,44.6,29.96,West,278,2.0,15.0,59,0.00,,,0.00,Wunderground v.1.15,2013-06-04 12:46:00,
2013-06-04 08:56:00,59.2,44.4,29.96,NW,323,2.0,15.0,58,0.00,,,0.00,Wunderground v.1.15,2013-06-04 12:56:00,
2013-06-04 09:01:00,59.5,46.9,29.96,NW,318,2.0,2.0,63,0.00,,,0.00,Wunderground v.1.15,2013-06-04 13:01:00,
2013-06-04 09:11:00,60.4,45.5,29.96,WNW,300,2.0,15.0,58,0.00,,,0.00,Wunderground v.1.15,2013-06-04 13:11:00,
2013-06-04 09:21:00,61.4,45.6,29.96,SSW,197,2.0,2.0,56,0.00,,,0.00,Wunderground v.1.15,2013-06-04 13:21:00,
2013-06-04 09:31:00,62.4,46.0,29.96,SSE,152,1.0,1.0,55,0.00,,,0.00,Wunderground v.1.15,2013-06-04 13:31:00,
2013-06-04 09:36:00,62.8,45.9,29.96,West,262,1.0,2.0,54,0.00,,,0.00,Wunderground v.1.15,2013-06-04 13:36:00,
2013-06-04 09:46:00,62.6,45.7,29.96,WNW,298,2.0,15.0,54,0.00,,,0.00,Wunderground v.1.15,2013-06-04 13:46:00,
2013-06-04 09:56:00,63.0,47.5,29.96,West,267,2.0,15.0,57,0.00,,,0.00,Wunderground v.1.15,2013-06-04 13:56:00,
2013-06-04 10:01:00,63.3,45.4,29.97,NW,318,2.0,15.0,52,0.00,,,0.00,Wunderground v.1.15,2013-06-04 14:01:00,
2013-06-04 10:11:00,63.7,45.7,29.97,WNW,282,3.0,3.0,52,0.00,,,0.00,Wunderground v.1.15,2013-06-04 14:11:00,
2013-06-04 10:16:00,63.6,45.6,29.97,West,281,3.0,15.0,52,0.00,,,0.00,Wunderground v.1.15,2013-06-04 14:16:00,
2013-06-04 10:26:00,63.8,45.3,29.97,WNW,290,3.0,15.0,51,0.00,,,0.00,Wunderground v.1.15,2013-06-04 14:26:00,
2013-06-04 10:36:00,63.9,44.9,29.96,NW,323,3.0,5.0,50,0.00,,,0.00,Wunderground v.1.15,2013-06-04 14:36:00,
2013-06-04 10:41:00,64.1,44.5,29.97,NNW,329,3.0,15.0,49,0.00,,,0.00,Wunderground v.1.15,2013-06-04 14:41:00,
2013-06-04 10:51:00,64.3,45.3,29.97,North,360,3.0,15.0,50,0.00,,,0.00,Wunderground v.1.15,2013-06-04 14:51:00,
2013-06-04 11:01:00,65.0,45.4,29.97,NW,316,2.0,2.0,49,0.00,,,0.00,Wunderground v.1.15,2013-06-04 15:01:00,
2013-06-04 11:16:00,65.5,44.7,29.96,WNW,301,3.0,15.0,47,0.00,,,0.00,Wunderground v.1.15,2013-06-04 15:16:00,
2013-06-04 11:21:00,65.7,47.1,29.97,NW,314,3.0,15.0,51,0.00,,,0.00,Wunderground v.1.15,2013-06-04 15:21:00,
2013-06-04 11:31:00,66.1,45.8,29.97,WNW,284,2.0,15.0,48,0.00,,,0.00,Wunderground v.1.15,2013-06-04 15:31:00,
2013-06-04 11:36:00,66.3,46.6,29.97,WNW,282,2.0,15.0,49,0.00,,,0.00,Wunderground v.1.15,2013-06-04 15:36:00,
2013-06-04 11:46:00,66.3,44.3,29.96,North,1,3.0,15.0,45,0.00,,,0.00,Wunderground v.1.15,2013-06-04 15:46:00,
2013-06-04 11:51:00,66.3,44.9,29.97,WNW,295,3.0,3.0,46,0.00,,,0.00,Wunderground v.1.15,2013-06-04 15:51:00,
2013-06-04 12:01:00,66.3,44.9,29.97,WNW,288,3.0,3.0,46,0.00,,,0.00,Wunderground v.1.15,2013-06-04 16:01:00,
2013-06-04 12:06:00,66.5,46.2,29.97,WNW,294,3.0,15.0,48,0.00,,,0.00,Wunderground v.1.15,2013-06-04 16:06:00,
2013-06-04 12:16:00,66.9,46.0,29.97,SW,217,2.0,15.0,47,0.00,,,0.00,Wunderground v.1.15,2013-06-04 16:16:00,
2013-06-04 12:26:00,67.4,45.3,29.97,West,266,2.0,4.0,45,0.00,,,0.00,Wunderground v.1.15,2013-06-04 16:26:00,
2013-06-04 12:31:00,67.5,45.4,29.97,SW,236,2.0,2.0,45,0.00,,,0.00,Wunderground v.1.15,2013-06-04 16:31:00,
2013-06-04 12:36:00,67.7,45.0,29.97,NW,316,2.0,3.0,44,0.00,,,0.00,Wunderground v.1.15,2013-06-04 16:36:00,
2013-06-04 12:46:00,68.3,46.7,29.97,North,354,2.0,15.0,46,0.00,,,0.00,Wunderground v.1.15,2013-06-04 16:46:00,
2013-06-04 12:51:00,68.1,45.9,29.96,West,274,2.0,2.0,45,0.00,,,0.00,Wunderground v.1.15,2013-06-04 16:51:00,
2013-06-04 13:01:00,69.0,46.8,29.96,SW,232,2.0,15.0,45,0.00,,,0.00,Wunderground v.1.15,2013-06-04 17:01:00,
2013-06-04 13:06:00,68.6,46.4,29.96,North,359,2.0,15.0,45,0.00,,,0.00,Wunderground v.1.15,2013-06-04 17:06:00,
2013-06-04 13:16:00,68.6,47.0,29.96,WNW,293,2.0,15.0,46,0.00,,,0.00,Wunderground v.1.15,2013-06-04 17:16:00,
2013-06-04 13:26:00,68.8,47.7,29.96,WNW,297,2.0,15.0,47,0.00,,,0.00,Wunderground v.1.15,2013-06-04 17:26:00,
2013-06-04 13:31:00,68.8,47.7,29.96,NW,324,2.0,15.0,47,0.00,,,0.00,Wunderground v.1.15,2013-06-04 17:31:00,
2013-06-04 13:41:00,69.1,46.3,29.96,NW,323,3.0,3.0,44,0.00,,,0.00,Wunderground v.1.15,2013-06-04 17:41:00,
2013-06-04 13:51:00,69.3,46.4,29.96,WNW,301,1.0,15.0,44,0.00,,,0.00,Wunderground v.1.15,2013-06-04 17:51:00,
2013-06-04 13:56:00,69.4,47.7,29.96,WSW,239,2.0,15.0,46,0.00,,,0.00,Wunderground v.1.15,2013-06-04 17:56:00,
2013-06-04 14:06:00,69.2,46.9,29.96,SW,231,3.0,3.0,45,0.00,,,0.00,Wunderground v.1.15,2013-06-04 18:06:00,
2013-06-04 14:16:00,69.5,48.9,29.96,ESE,103,2.0,15.0,48,0.00,,,0.00,Wunderground v.1.15,2013-06-04 18:16:00,
2013-06-04 14:21:00,69.9,47.0,29.96,NNW,327,1.0,15.0,44,0.00,,,0.00,Wunderground v.1.15,2013-06-04 18:21:00,
2013-06-04 14:31:00,69.6,45.5,29.96,West,270,3.0,3.0,42,0.00,,,0.00,Wunderground v.1.15,2013-06-04 18:31:00,
2013-06-04 14:36:00,69.6,47.9,29.96,SW,225,3.0,15.0,46,0.00,,,0.00,Wunderground v.1.15,2013-06-04 18:36:00,
2013-06-04 14:56:00,69.4,47.7,29.96,NW,326,2.0,15.0,46,0.00,,,0.00,Wunderground v.1.15,2013-06-04 18:56:00,
2013-06-04 15:06:00,69.7,46.8,29.96,SSW,198,2.0,15.0,44,0.00,,,0.00,Wunderground v.1.15,2013-06-04 19:06:00,
2013-06-04 15:11:00,69.7,48.0,29.96,NNW,338,2.0,2.0,46,0.00,,,0.00,Wunderground v.1.15,2013-06-04 19:11:00,
2013-06-04 15:16:00,69.5,45.4,29.96,WNW,287,2.0,15.0,42,0.00,,,0.00,Wunderground v.1.15,2013-06-04 19:16:00,
2013-06-04 15:26:00,69.7,46.8,29.96,WSW,257,1.0,15.0,44,0.00,,,0.00,Wunderground v.1.15,2013-06-04 19:26:00,
2013-06-04 15:36:00,69.0,46.2,29.96,North,354,2.0,15.0,44,0.00,,,0.00,Wunderground v.1.15,2013-06-04 19:36:00,
2013-06-04 15:46:00,69.4,45.9,29.96,NW,308,2.0,15.0,43,0.00,,,0.00,Wunderground v.1.15,2013-06-04 19:46:00,
2013-06-04 15:56:00,69.3,46.4,29.96,West,270,2.0,15.0,44,0.00,,,0.00,Wunderground v.1.15,2013-06-04 19:56:00,
2013-06-04 16:06:00,69.3,47.0,29.95,NW,317,1.0,15.0,45,0.00,,,0.00,Wunderground v.1.15,2013-06-04 20:06:00,
2013-06-04 16:16:00,69.3,47.6,29.95,NNW,329,2.0,15.0,46,0.00,,,0.00,Wunderground v.1.15,2013-06-04 20:16:00,
2013-06-04 16:21:00,69.3,48.2,29.95,North,354,2.0,15.0,47,0.00,,,0.00,Wunderground v.1.15,2013-06-04 20:21:00,
2013-06-04 16:31:00,69.4,48.3,29.95,WSW,240,2.0,2.0,47,0.00,,,0.00,Wunderground v.1.15,2013-06-04 20:31:00,
2013-06-04 16:41:00,69.4,48.9,29.96,NW,319,2.0,15.0,48,0.00,,,0.00,Wunderground v.1.15,2013-06-04 20:41:00,
2013-06-04 16:56:00,69.2,48.1,29.96,NNW,336,1.0,15.0,47,0.00,,,0.00,Wunderground v.1.15,2013-06-04 20:56:00,
2013-06-04 17:01:00,69.2,51.3,29.96,SE,143,2.0,15.0,53,0.00,,,0.00,Wunderground v.1.15,2013-06-04 21:01:00,
2013-06-04 17:11:00,69.2,47.5,29.96,WNW,297,1.0,15.0,46,0.00,,,0.00,Wunderground v.1.15,2013-06-04 21:11:00,
2013-06-04 17:16:00,69.3,48.2,29.96,NW,305,1.0,15.0,47,0.00,,,0.00,Wunderground v.1.15,2013-06-04 21:16:00,
2013-06-04 17:21:00,69.2,47.5,29.95,West,271,1.0,15.0,46,0.00,,,0.00,Wunderground v.1.15,2013-06-04 21:21:00,
2013-06-04 17:36:00,68.9,48.4,29.96,WNW,300,1.0,15.0,48,0.00,,,0.00,Wunderground v.1.15,2013-06-04 21:36:00,
2013-06-04 17:46:00,69.0,47.9,29.96,NNW,345,1.0,15.0,47,0.00,,,0.00,Wunderground v.1.15,2013-06-04 21:46:00,
2013-06-04 18:01:00,68.7,47.1,29.97,WNW,301,1.0,15.0,46,0.00,,,0.00,Wunderground v.1.15,2013-06-04 22:01:00,
2013-06-04 18:06:00,68.7,47.6,29.97,WNW,297,2.0,15.0,47,0.00,,,0.00,Wunderground v.1.15,2013-06-04 22:06:00,
2013-06-04 18:11:00,68.7,48.2,29.97,WNW,291,1.0,15.0,48,0.00,,,0.00,Wunderground v.1.15,2013-06-04 22:11:00,
2013-06-04 18:21:00,68.5,46.9,29.97,WNW,288,1.0,15.0,46,0.00,,,0.00,Wunderground v.1.15,2013-06-04 22:21:00,
2013-06-04 18:31:00,68.4,48.5,29.98,WSW,240,1.0,1.0,49,0.00,,,0.00,Wunderground v.1.15,2013-06-04 22:31:00,
2013-06-04 18:36:00,68.4,47.4,29.98,NW,325,1.0,15.0,47,0.00,,,0.00,Wunderground v.1.15,2013-06-04 22:36:00,
2013-06-04 18:51:00,68.2,47.2,29.99,NW,321,0.0,15.0,47,0.00,,,0.00,Wunderground v.1.15,2013-06-04 22:51:00,
2013-06-04 18:56:00,68.0,48.7,29.99,WNW,298,0.0,15.0,50,0.00,,,0.00,Wunderground v.1.15,2013-06-04 22:56:00,
2013-06-04 19:06:00,67.6,48.3,29.99,NW,310,0.0,15.0,50,0.00,,,0.00,Wunderground v.1.15,2013-06-04 23:06:00,
2013-06-04 19:21:00,67.0,49.8,30.00,North,349,0.0,15.0,54,0.00,,,0.00,Wunderground v.1.15,2013-06-04 23:21:00,
2013-06-04 19:26:00,66.4,49.7,30.00,WSW,243,0.0,15.0,55,0.00,,,0.00,Wunderground v.1.15,2013-06-04 23:26:00,
2013-06-04 19:36:00,65.5,49.4,30.00,WSW,243,0.0,15.0,56,0.00,,,0.00,Wunderground v.1.15,2013-06-04 23:36:00,
2013-06-04 19:46:00,64.8,49.2,30.00,WSW,243,0.0,15.0,57,0.00,,,0.00,Wunderground v.1.15,2013-06-04 23:46:00,
2013-06-04 19:56:00,64.1,49.5,30.00,WSW,243,0.0,15.0,59,0.00,,,0.00,Wunderground v.1.15,2013-06-04 23:56:00,
2013-06-04 20:01:00,63.8,49.6,30.00,WSW,243,0.0,15.0,60,0.00,,,0.00,Wunderground v.1.15,2013-06-05 00:01:00,
2013-06-04 20:06:00,63.5,49.4,30.00,WSW,243,0.0,15.0,60,0.00,,,0.00,Wunderground v.1.15,2013-06-05 00:06:00,
2013-06-04 20:16:00,62.9,49.2,30.00,WSW,243,0.0,15.0,61,0.00,,,0.00,Wunderground v.1.15,2013-06-05 00:16:00,
2013-06-04 20:21:00,62.6,51.5,30.00,SSE,151,0.0,15.0,67,0.00,,,0.00,Wunderground v.1.15,2013-06-05 00:21:00,
2013-06-04 20:26:00,62.0,51.7,30.01,SE,141,0.0,15.0,69,0.00,,,0.00,Wunderground v.1.15,2013-06-05 00:26:00,
2013-06-04 20:31:00,61.2,51.7,30.01,SE,141,0.0,15.0,71,0.00,,,0.00,Wunderground v.1.15,2013-06-05 00:31:00,
2013-06-04 20:41:00,60.3,51.6,30.02,SE,141,0.0,15.0,73,0.00,,,0.00,Wunderground v.1.15,2013-06-05 00:41:00,
2013-06-04 20:51:00,59.6,50.6,30.02,SE,141,0.0,15.0,72,0.00,,,0.00,Wunderground v.1.15,2013-06-05 00:51:00,
2013-06-04 20:56:00,59.2,49.8,30.03,SE,141,0.0,15.0,71,0.00,,,0.00,Wunderground v.1.15,2013-06-05 00:56:00,
2013-06-04 21:06:00,58.6,50.3,30.03,SW,221,0.0,15.0,74,0.00,,,0.00,Wunderground v.1.15,2013-06-05 01:06:00,
2013-06-04 21:16:00,58.3,51.5,30.04,SW,220,0.0,15.0,78,0.00,,,0.00,Wunderground v.1.15,2013-06-05 01:16:00,
2013-06-04 21:26:00,58.1,52.0,30.04,SW,221,0.0,15.0,80,0.00,,,0.00,Wunderground v.1.15,2013-06-05 01:26:00,
2013-06-04 21:31:00,57.8,52.0,30.04,SW,221,0.0,15.0,81,0.00,,,0.00,Wunderground v.1.15,2013-06-05 01:31:00,
2013-06-04 21:41:00,57.4,51.9,30.05,SW,219,0.0,15.0,82,0.00,,,0.00,Wunderground v.1.15,2013-06-05 01:41:00,
2013-06-04 21:56:00,56.8,52.0,30.06,SW,221,0.0,15.0,84,0.00,,,0.00,Wunderground v.1.15,2013-06-05 01:56:00,
2013-06-04 22:01:00,56.6,50.8,30.06,SW,221,0.0,15.0,81,0.00,,,0.00,Wunderground v.1.15,2013-06-05 02:01:00,
2013-06-04 22:11:00,56.1,50.7,30.07,SW,219,0.0,15.0,82,0.00,,,0.00,Wunderground v.1.15,2013-06-05 02:11:00,
2013-06-04 22:21:00,55.9,51.5,30.07,SW,219,0.0,15.0,85,0.00,,,0.00,Wunderground v.1.15,2013-06-05 02:21:00,
2013-06-04 22:31:00,55.4,50.0,30.07,SW,219,0.0,15.0,82,0.00,,,0.00,Wunderground v.1.15,2013-06-05 02:31:00,
2013-06-04 22:36:00,55.2,49.5,30.07,SW,219,0.0,15.0,81,0.00,,,0.00,Wunderground v.1.15,2013-06-05 02:36:00,
2013-06-04 22:46:00,55.0,50.9,30.07,South,185,0.0,15.0,86,0.00,,,0.00,Wunderground v.1.15,2013-06-05 02:46:00,
2013-06-04 22:51:00,54.7,50.3,30.08,South,186,0.0,15.0,85,0.00,,,0.00,Wunderground v.1.15,2013-06-05 02:51:00,
2013-06-04 23:01:00,54.4,50.3,30.07,South,187,0.0,15.0,86,0.00,,,0.00,Wunderground v.1.15,2013-06-05 03:01:00,
2013-06-04 23:06:00,54.3,50.2,30.07,South,186,0.0,15.0,86,0.00,,,0.00,Wunderground v.1.15,2013-06-05 03:06:00,
2013-06-04 23:26:00,54.0,50.5,30.08,South,187,0.0,15.0,88,0.00,,,0.00,Wunderground v.1.15,2013-06-05 03:26:00,
2013-06-04 23:31:00,53.9,50.7,30.08,South,186,0.0,15.0,89,0.00,,,0.00,Wunderground v.1.15,2013-06-05 03:31:00,
2013-06-04 23:41:00,53.6,50.7,30.09,South,187,0.0,15.0,90,0.00,,,0.00,Wunderground v.1.15,2013-06-05 03:41:00,
2013-06-04 23:46:00,53.5,50.9,30.08,SSW,202,0.0,15.0,91,0.00,,,0.00,Wunderground v.1.15,2013-06-05 03:46:00,
2013-06-04 23:56:00,53.6,51.3,30.09,SSW,205,0.0,15.0,92,0.00,,,0.00,Wunderground v.1.15,2013-06-05 03:56:00,